| time (UTC) | temp F | wind direction | speed MPH | gust MPH | rain 1hr in | rain 24hr in | rain mn in | humidity % | barometer mb |
| 20260506024023 | 60 | 83 | 5.0 | 8.0 | 0.00 | 0.00 | 0.00 | 41 | 1015.8 |
| 20260506022824 | 61 | 135 | 1.0 | 3.0 | 0.00 | 0.00 | 0.00 | 41 | 1015.7 |
| 20260506022417 | 61 | 85 | 3.0 | 3.0 | 0.00 | 0.00 | 0.00 | 40 | 1015.5 |
| 20260506022020 | 61 | 135 | 3.0 | 5.0 | 0.00 | 0.00 | 0.00 | 40 | 1015.6 |
| 20260506021615 | 61 | 128 | 5.0 | 6.0 | 0.00 | 0.00 | 0.00 | 40 | 1015.4 |
| 20260506021214 | 62 | 85 | 5.0 | 5.0 | 0.00 | 0.00 | 0.00 | 40 | 1015.4 |
| 20260506020813 | 62 | 135 | 4.0 | 4.0 | 0.00 | 0.00 | 0.00 | 39 | 1015.3 |
| 20260506020411 | 62 | 87 | 3.0 | 5.0 | 0.00 | 0.00 | 0.00 | 39 | 1015.4 |
| 20260506015207 | 62 | 112 | 3.0 | 6.0 | 0.00 | 0.00 | 0.00 | 38 | 1015.3 |
| 20260506014806 | 63 | 135 | 4.0 | 4.0 | 0.00 | 0.00 | 0.00 | 38 | 1015.3 |
| 20260506014405 | 63 | 155 | 3.0 | 6.0 | 0.00 | 0.00 | 0.00 | 38 | 1015.3 |
| 20260506014003 | 63 | 114 | 4.0 | 7.0 | 0.00 | 0.00 | 0.00 | 37 | 1015.2 |
| 20260506013201 | 64 | 117 | 4.0 | 6.0 | 0.00 | 0.00 | 0.00 | 37 | 1015.1 |
| 20260506012359 | 65 | 110 | 4.0 | 6.0 | 0.00 | 0.00 | 0.00 | 37 | 1015.1 |
| 20260506011957 | 65 | 148 | 4.0 | 6.0 | 0.00 | 0.00 | 0.00 | 36 | 1015.1 |
| 20260506011556 | 65 | 123 | 1.0 | 6.0 | 0.00 | 0.00 | 0.00 | 36 | 1015.0 |
| 20260506011154 | 65 | 157 | 3.0 | 5.0 | 0.00 | 0.00 | 0.00 | 36 | 1015.1 |
| 20260506010753 | 65 | 144 | 4.0 | 7.0 | 0.00 | 0.00 | 0.00 | 36 | 1015.1 |
| 20260506005951 | 66 | 132 | 6.0 | 6.0 | 0.00 | 0.00 | 0.00 | 36 | 1015.1 |
| 20260506005550 | 66 | 123 | 3.0 | 7.0 | 0.00 | 0.00 | 0.00 | 35 | 1015.1 |
| 20260506004821 | 67 | 135 | 3.0 | 5.0 | 0.00 | 0.00 | 0.00 | 35 | 1015.0 |
| 20260506004747 | 67 | 135 | 3.0 | 5.0 | 0.00 | 0.00 | 0.00 | 35 | 1015.0 |
| 20260506003543 | 68 | 183 | 1.0 | 3.0 | 0.00 | 0.00 | 0.00 | 35 | 1014.9 |
| 20260506003142 | 68 | 213 | 2.0 | 4.0 | 0.00 | 0.00 | 0.00 | 35 | 1014.9 |
| 20260506002339 | 68 | 180 | 3.0 | 3.0 | 0.00 | 0.00 | 0.00 | 34 | 1014.9 |
| 20260506001135 | 69 | 185 | 1.0 | 5.0 | 0.00 | 0.00 | 0.00 | 34 | 1014.7 |
| 20260506000734 | 69 | 195 | 1.0 | 7.0 | 0.00 | 0.00 | 0.00 | 34 | 1014.7 |
| 20260505235931 | 69 | 135 | 1.0 | 6.0 | 0.00 | 0.00 | 0.00 | 33 | 1014.7 |
| 20260505235532 | 69 | 193 | 1.0 | 6.0 | 0.00 | 0.00 | 0.00 | 33 | 1014.7 |
| 20260505234728 | 69 | 184 | 1.0 | 3.0 | 0.00 | 0.00 | 0.00 | 33 | 1014.8 |
| 20260505233929 | 69 | 139 | 2.0 | 7.0 | 0.00 | 0.00 | 0.00 | 32 | 1014.8 |
| 20260505233123 | 69 | 171 | 6.0 | 6.0 | 0.00 | 0.00 | 0.00 | 32 | 1015.0 |
| 20260505232721 | 69 | 171 | 4.0 | 9.0 | 0.00 | 0.00 | 0.00 | 31 | 1014.8 |
| 20260505232320 | 69 | 220 | 6.0 | 10.0 | 0.00 | 0.00 | 0.00 | 31 | 1014.8 |
| 20260505231920 | 69 | 182 | 4.0 | 9.0 | 0.00 | 0.00 | 0.00 | 31 | 1014.9 |
| 20260505231518 | 70 | 183 | 7.0 | 12.0 | 0.00 | 0.00 | 0.00 | 31 | 1014.7 |
| 20260505231116 | 70 | 211 | 2.0 | 12.0 | 0.00 | 0.00 | 0.00 | 31 | 1014.7 |
| 20260505230715 | 70 | 186 | 10.0 | 12.0 | 0.00 | 0.00 | 0.00 | 31 | 1014.8 |
| 20260505230313 | 71 | 209 | 4.0 | 13.0 | 0.00 | 0.00 | 0.00 | 31 | 1014.9 |
| 20260505225912 | 72 | 180 | 8.0 | 11.0 | 0.00 | 0.00 | 0.00 | 31 | 1014.9 |
| 20260505225109 | 72 | 199 | 5.0 | 10.0 | 0.00 | 0.00 | 0.00 | 31 | 1014.9 |
| 20260505224708 | 71 | 210 | 10.0 | 14.0 | 0.00 | 0.00 | 0.00 | 30 | 1014.9 |
| 20260505224307 | 71 | 182 | 8.0 | 12.0 | 0.00 | 0.00 | 0.00 | 30 | 1015.0 |
| 20260505223906 | 71 | 198 | 8.0 | 10.0 | 0.00 | 0.00 | 0.00 | 30 | 1015.0 |
| 20260505223103 | 70 | 232 | 3.0 | 7.0 | 0.00 | 0.00 | 0.00 | 29 | 1015.0 |
| 20260505222701 | 70 | 202 | 4.0 | 9.0 | 0.00 | 0.00 | 0.00 | 28 | 1015.1 |
| 20260505222300 | 71 | 196 | 3.0 | 9.0 | 0.00 | 0.00 | 0.00 | 28 | 1015.1 |
| 20260505221902 | 71 | 142 | 4.0 | 11.0 | 0.00 | 0.00 | 0.00 | 28 | 1015.1 |
| 20260505221058 | 73 | 193 | 8.0 | 11.0 | 0.00 | 0.00 | 0.00 | 27 | 1015.1 |
| 20260505220656 | 74 | 45 | 0.0 | 9.0 | 0.00 | 0.00 | 0.00 | 27 | 1015.0 |
| 20260505220254 | 74 | 205 | 4.0 | 7.0 | 0.00 | 0.00 | 0.00 | 27 | 1015.1 |
| 20260505215853 | 75 | 153 | 2.0 | 5.0 | 0.00 | 0.00 | 0.00 | 27 | 1015.1 |
| 20260505215451 | 76 | 212 | 3.0 | 12.0 | 0.00 | 0.00 | 0.00 | 27 | 1015.1 |
| 20260505215050 | 76 | 172 | 3.0 | 7.0 | 0.00 | 0.00 | 0.00 | 27 | 1015.2 |
| 20260505214649 | 77 | 292 | 3.0 | 7.0 | 0.00 | 0.00 | 0.00 | 27 | 1015.2 |
| 20260505213447 | 76 | 244 | 3.0 | 4.0 | 0.00 | 0.00 | 0.00 | 27 | 1015.2 |
| 20260505212643 | 75 | 165 | 4.0 | 5.0 | 0.00 | 0.00 | 0.00 | 26 | 1015.2 |
| 20260505212242 | 76 | 173 | 7.0 | 7.0 | 0.00 | 0.00 | 0.00 | 27 | 1015.2 |
| 20260505211438 | 76 | 228 | 2.0 | 5.0 | 0.00 | 0.00 | 0.00 | 27 | 1015.3 |
| 20260505211037 | 76 | 180 | 5.0 | 9.0 | 0.00 | 0.00 | 0.00 | 28 | 1015.3 |
| 20260505210236 | 77 | 208 | 5.0 | 6.0 | 0.00 | 0.00 | 0.00 | 28 | 1015.2 |
| 20260505205433 | 76 | 155 | 4.0 | 10.0 | 0.00 | 0.00 | 0.00 | 29 | 1015.3 |
| 20260505205030 | 75 | 194 | 6.0 | 8.0 | 0.00 | 0.00 | 0.00 | 29 | 1015.3 |
| 20260505204629 | 73 | 180 | 5.0 | 10.0 | 0.00 | 0.00 | 0.00 | 29 | 1015.3 |
| 20260505204234 | 72 | 90 | 2.0 | 8.0 | 0.00 | 0.00 | 0.00 | 28 | 1015.3 |
| 20260505203426 | 72 | 207 | 8.0 | 8.0 | 0.00 | 0.00 | 0.00 | 27 | 1015.2 |
| 20260505202623 | 73 | 153 | 2.0 | 5.0 | 0.00 | 0.00 | 0.00 | 27 | 1015.2 |
| 20260505202222 | 74 | 210 | 2.0 | 4.0 | 0.00 | 0.00 | 0.00 | 27 | 1015.3 |
| 20260505201821 | 74 | 195 | 2.0 | 8.0 | 0.00 | 0.00 | 0.00 | 28 | 1015.2 |
| 20260505201419 | 74 | 209 | 6.0 | 10.0 | 0.00 | 0.00 | 0.00 | 28 | 1015.2 |
| 20260505201018 | 73 | 198 | 2.0 | 8.0 | 0.00 | 0.00 | 0.00 | 28 | 1015.3 |
| 20260505200617 | 73 | 189 | 7.0 | 7.0 | 0.00 | 0.00 | 0.00 | 28 | 1015.3 |
| 20260505200215 | 72 | 175 | 3.0 | 3.0 | 0.00 | 0.00 | 0.00 | 27 | 1015.2 |
| 20260505195816 | 72 | 162 | 2.0 | 7.0 | 0.00 | 0.00 | 0.00 | 27 | 1015.2 |
| 20260505195414 | 71 | 180 | 3.0 | 8.0 | 0.00 | 0.00 | 0.00 | 26 | 1015.3 |
| 20260505195012 | 70 | 135 | 8.0 | 10.0 | 0.00 | 0.00 | 0.00 | 27 | 1015.3 |
| 20260505194611 | 74 | 177 | 3.0 | 6.0 | 0.00 | 0.00 | 0.00 | 28 | 1015.4 |
| 20260505194209 | 75 | 186 | 5.0 | 7.0 | 0.00 | 0.00 | 0.00 | 29 | 1015.3 |
| 20260505193807 | 74 | 135 | 7.0 | 10.0 | 0.00 | 0.00 | 0.00 | 29 | 1015.4 |
| 20260505192605 | 74 | 193 | 5.0 | 7.0 | 0.00 | 0.00 | 0.00 | 29 | 1015.5 |
| 20260505191802 | 76 | 135 | 9.0 | 10.0 | 0.00 | 0.00 | 0.00 | 30 | 1015.5 |
| 20260505191402 | 79 | 155 | 4.0 | 7.0 | 0.00 | 0.00 | 0.00 | 30 | 1015.5 |
| 20260505191400 | 79 | 155 | 4.0 | 7.0 | 0.00 | 0.00 | 0.00 | 30 | 1015.5 |
| 20260505190557 | 77 | 225 | 2.0 | 3.0 | 0.00 | 0.00 | 0.00 | 30 | 1015.5 |
| 20260505190156 | 77 | 197 | 0.0 | 5.0 | 0.00 | 0.00 | 0.00 | 30 | 1015.5 |
| 20260505185830 | 77 | 83 | 1.0 | 7.0 | 0.00 | 0.00 | 0.00 | 31 | 1015.5 |
| 20260505185756 | 77 | 83 | 1.0 | 7.0 | 0.00 | 0.00 | 0.00 | 31 | 1015.5 |
| 20260505185354 | 79 | 278 | 1.0 | 6.0 | 0.00 | 0.00 | 0.00 | 32 | 1015.5 |
| 20260505184551 | 77 | 183 | 2.0 | 4.0 | 0.00 | 0.00 | 0.00 | 33 | 1015.6 |
| 20260505183749 | 76 | 42 | 0.0 | 2.0 | 0.00 | 0.00 | 0.00 | 34 | 1015.6 |
| 20260505182947 | 72 | 168 | 2.0 | 4.0 | 0.00 | 0.00 | 0.00 | 35 | 1015.6 |
| 20260505182544 | 72 | 337 | 1.0 | 4.0 | 0.00 | 0.00 | 0.00 | 35 | 1015.6 |
| 20260505182143 | 71 | 324 | 2.0 | 5.0 | 0.00 | 0.00 | 0.00 | 36 | 1015.7 |
| 20260505181742 | 69 | 270 | 5.0 | 5.0 | 0.00 | 0.00 | 0.00 | 36 | 1015.7 |
| 20260505181341 | 68 | 42 | 4.0 | 4.0 | 0.00 | 0.00 | 0.00 | 37 | 1015.7 |
| 20260505180942 | 68 | 307 | 2.0 | 3.0 | 0.00 | 0.00 | 0.00 | 37 | 1015.7 |
| 20260505180539 | 67 | 348 | 1.0 | 6.0 | 0.00 | 0.00 | 0.00 | 37 | 1015.7 |
| 20260505180140 | 67 | 45 | 0.0 | 1.0 | 0.00 | 0.00 | 0.00 | 38 | 1015.8 |
| 20260505175742 | 67 | 330 | 1.0 | 6.0 | 0.00 | 0.00 | 0.00 | 38 | 1015.7 |
| 20260505175334 | 66 | 30 | 4.0 | 4.0 | 0.00 | 0.00 | 0.00 | 39 | 1015.7 |
| 20260505174937 | 66 | 157 | 0.0 | 5.0 | 0.00 | 0.00 | 0.00 | 39 | 1015.6 |
| 20260505174540 | 66 | 40 | 0.0 | 6.0 | 0.00 | 0.00 | 0.00 | 39 | 1015.6 |
| 20260505173730 | 64 | 0 | 1.0 | 3.0 | 0.00 | 0.00 | 0.00 | 40 | 1015.6 |
| 20260505173328 | 63 | 45 | 3.0 | 5.0 | 0.00 | 0.00 | 0.00 | 40 | 1015.6 |
| 20260505172928 | 63 | 28 | 4.0 | 4.0 | 0.00 | 0.00 | 0.00 | 40 | 1015.4 |
| 20260505172602 | 63 | 310 | 3.0 | 6.0 | 0.00 | 0.00 | 0.00 | 41 | 1015.5 |
| 20260505172527 | 63 | 310 | 3.0 | 6.0 | 0.00 | 0.00 | 0.00 | 41 | 1015.5 |
| 20260505171755 | 63 | 306 | 1.0 | 3.0 | 0.00 | 0.00 | 0.00 | 41 | 1015.5 |
| 20260505171723 | 63 | 306 | 1.0 | 3.0 | 0.00 | 0.00 | 0.00 | 41 | 1015.5 |
| 20260505165717 | 62 | 39 | 4.0 | 8.0 | 0.00 | 0.00 | 0.00 | 42 | 1015.4 |
| 20260505165321 | 62 | 322 | 6.0 | 6.0 | 0.00 | 0.00 | 0.00 | 42 | 1015.4 |
| 20260505164914 | 63 | 339 | 3.0 | 4.0 | 0.00 | 0.00 | 0.00 | 42 | 1015.3 |
| 20260505164116 | 63 | 330 | 1.0 | 3.0 | 0.00 | 0.00 | 0.00 | 43 | 1015.3 |
| 20260505162947 | 62 | 16 | 2.0 | 4.0 | 0.00 | 0.00 | 0.00 | 43 | 1015.3 |
| 20260505162912 | 62 | 16 | 2.0 | 4.0 | 0.00 | 0.00 | 0.00 | 43 | 1015.3 |
| 20260505162506 | 63 | 40 | 4.0 | 4.0 | 0.00 | 0.00 | 0.00 | 43 | 1015.2 |
| 20260505162107 | 62 | 45 | 1.0 | 3.0 | 0.00 | 0.00 | 0.00 | 44 | 1015.2 |
| 20260505161707 | 62 | 45 | 1.0 | 4.0 | 0.00 | 0.00 | 0.00 | 44 | 1015.1 |
| 20260505161302 | 62 | 33 | 2.0 | 5.0 | 0.00 | 0.00 | 0.00 | 44 | 1015.2 |
| 20260505160908 | 62 | 310 | 2.0 | 4.0 | 0.00 | 0.00 | 0.00 | 45 | 1015.1 |
| 20260505160500 | 62 | 355 | 3.0 | 6.0 | 0.00 | 0.00 | 0.00 | 45 | 1015.1 |
| 20260505153243 | 59 | 45 | 1.0 | 3.0 | 0.00 | 0.00 | 0.00 | 49 | 1015.1 |
| 20260505152930 | 59 | 20 | 3.0 | 4.0 | 0.00 | 0.00 | 0.00 | 49 | 1015.2 |
| 20260505152842 | 59 | 20 | 3.0 | 4.0 | 0.00 | 0.00 | 0.00 | 49 | 1015.2 |
| 20260505152442 | 59 | 339 | 4.0 | 5.0 | 0.00 | 0.00 | 0.00 | 50 | 1015.0 |
| 20260505151639 | 59 | 36 | 5.0 | 7.0 | 0.00 | 0.00 | 0.00 | 51 | 1015.1 |
| 20260505151240 | 59 | 28 | 4.0 | 5.0 | 0.00 | 0.00 | 0.00 | 52 | 1015.1 |
| 20260505150842 | 59 | 20 | 4.0 | 6.0 | 0.00 | 0.00 | 0.00 | 52 | 1015.0 |
| 20260505150434 | 59 | 11 | 3.0 | 3.0 | 0.00 | 0.00 | 0.00 | 52 | 1014.9 |
| 20260505140418 | 52 | 45 | 0.0 | 0.0 | 0.00 | 0.00 | 0.00 | 57 | 1014.6 |
| 20260505124751 | 48 | 297 | 1.0 | 1.0 | 0.00 | 0.00 | 0.00 | 56 | 1014.5 |
| 20260505124351 | 48 | 306 | 0.0 | 0.0 | 0.00 | 0.00 | 0.00 | 56 | 1014.4 |
| 20260505123951 | 0 | 315 | 0.0 | 0.0 | 0.00 | 0.00 | 0.00 | 56 | 1014.4 |
| 20260505123655 | 49 | 312 | 0.0 | 0.0 | 0.00 | 0.00 | 0.00 | 56 | 1014.5 |
| 20260505123548 | 49 | 312 | 0.0 | 0.0 | 0.00 | 0.00 | 0.00 | 56 | 1014.5 |
| 20260505123148 | 49 | 270 | 0.0 | 0.0 | 0.00 | 0.00 | 0.00 | 56 | 1014.5 |
| 20260505122745 | 49 | 310 | 0.0 | 1.0 | 0.00 | 0.00 | 0.00 | 56 | 1014.5 |
| 20260505122343 | 49 | 315 | 0.0 | 0.0 | 0.00 | 0.00 | 0.00 | 56 | 1014.5 |
| 20260505121942 | 49 | 335 | 0.0 | 1.0 | 0.00 | 0.00 | 0.00 | 56 | 1014.4 |
| 20260505121140 | 49 | 279 | 0.0 | 0.0 | 0.00 | 0.00 | 0.00 | 56 | 1014.5 |
| 20260505120738 | 49 | 275 | 0.0 | 1.0 | 0.00 | 0.00 | 0.00 | 55 | 1014.5 |
| 20260505120337 | 49 | 229 | 0.0 | 1.0 | 0.00 | 0.00 | 0.00 | 55 | 1014.5 |
| 20260505115935 | 49 | 40 | 0.0 | 0.0 | 0.00 | 0.00 | 0.00 | 55 | 1014.5 |
| 20260505115534 | 49 | 310 | 0.0 | 0.0 | 0.00 | 0.00 | 0.00 | 55 | 1014.5 |
| 20260505115133 | 50 | 310 | 0.0 | 0.0 | 0.00 | 0.00 | 0.00 | 55 | 1014.5 |
| 20260505114732 | 50 | 279 | 0.0 | 0.0 | 0.00 | 0.00 | 0.00 | 54 | 1014.5 |
| 20260505114331 | 50 | 270 | 0.0 | 0.0 | 0.00 | 0.00 | 0.00 | 54 | 1014.6 |
| 20260505111521 | 51 | 342 | 1.0 | 1.0 | 0.00 | 0.00 | 0.00 | 53 | 1014.4 |
| 20260505111120 | 52 | 310 | 0.0 | 0.0 | 0.00 | 0.00 | 0.00 | 53 | 1014.6 |
| 20260505110718 | 52 | 180 | 0.0 | 0.0 | 0.00 | 0.00 | 0.00 | 53 | 1014.6 |
| 20260505101504 | 54 | 135 | 0.0 | 0.0 | 0.00 | 0.00 | 0.00 | 52 | 1014.7 |
| 20260505101101 | 54 | 270 | 0.0 | 0.0 | 0.00 | 0.00 | 0.00 | 52 | 1014.6 |
| 20260505100700 | 54 | 270 | 0.0 | 0.0 | 0.00 | 0.00 | 0.00 | 52 | 1014.8 |
| 20260505100259 | 54 | 270 | 0.0 | 0.0 | 0.00 | 0.00 | 0.00 | 52 | 1014.7 |
| 20260505095858 | 54 | 274 | 0.0 | 1.0 | 0.00 | 0.00 | 0.00 | 52 | 1014.8 |
| 20260505095458 | 55 | 333 | 0.0 | 1.0 | 0.00 | 0.00 | 0.00 | 52 | 1014.7 |
| 20260505094653 | 55 | 274 | 0.0 | 0.0 | 0.00 | 0.00 | 0.00 | 52 | 1014.8 |
| 20260505094253 | 55 | 244 | 0.0 | 1.0 | 0.00 | 0.00 | 0.00 | 52 | 1014.8 |
| 20260505093449 | 55 | 252 | 1.0 | 2.0 | 0.00 | 0.00 | 0.00 | 52 | 1015.0 |
| 20260505093048 | 55 | 274 | 1.0 | 3.0 | 0.00 | 0.00 | 0.00 | 52 | 1014.9 |
| 20260505092245 | 56 | 283 | 2.0 | 4.0 | 0.00 | 0.00 | 0.00 | 52 | 1015.0 |
| 20260505091443 | 56 | 42 | 1.0 | 1.0 | 0.00 | 0.00 | 0.00 | 52 | 1015.2 |
| 20260505091041 | 56 | 283 | 1.0 | 2.0 | 0.00 | 0.00 | 0.00 | 52 | 1015.2 |
| 20260505090640 | 56 | 279 | 1.0 | 2.0 | 0.00 | 0.00 | 0.00 | 52 | 1015.3 |
| 20260505090239 | 56 | 312 | 1.0 | 2.0 | 0.00 | 0.00 | 0.00 | 51 | 1015.2 |
| 20260505085035 | 56 | 274 | 3.0 | 4.0 | 0.00 | 0.00 | 0.00 | 51 | 1015.5 |
| 20260505084633 | 56 | 265 | 2.0 | 4.0 | 0.00 | 0.00 | 0.00 | 51 | 1015.5 |
| 20260505084232 | 56 | 306 | 3.0 | 4.0 | 0.00 | 0.00 | 0.00 | 51 | 1015.4 |
| 20260505083831 | 56 | 294 | 2.0 | 3.0 | 0.00 | 0.00 | 0.00 | 51 | 1015.4 |
| 20260505083431 | 56 | 288 | 3.0 | 4.0 | 0.00 | 0.00 | 0.00 | 51 | 1015.5 |
| 20260505083029 | 56 | 274 | 3.0 | 5.0 | 0.00 | 0.00 | 0.00 | 51 | 1015.6 |
| 20260505082628 | 56 | 279 | 4.0 | 5.0 | 0.00 | 0.00 | 0.00 | 51 | 1015.6 |
| 20260505082226 | 56 | 320 | 5.0 | 5.0 | 0.00 | 0.00 | 0.00 | 51 | 1015.6 |
| 20260505081423 | 56 | 270 | 2.0 | 4.0 | 0.00 | 0.00 | 0.00 | 51 | 1015.6 |
| 20260505081022 | 56 | 279 | 3.0 | 5.0 | 0.00 | 0.00 | 0.00 | 51 | 1015.8 |
| 20260505080621 | 56 | 270 | 4.0 | 4.0 | 0.00 | 0.00 | 0.00 | 51 | 1015.8 |
| 20260505080220 | 56 | 297 | 3.0 | 4.0 | 0.00 | 0.00 | 0.00 | 51 | 1015.7 |
| 20260505075417 | 57 | 274 | 3.0 | 4.0 | 0.00 | 0.00 | 0.00 | 51 | 1015.7 |
| 20260505075016 | 57 | 312 | 1.0 | 3.0 | 0.00 | 0.00 | 0.00 | 51 | 1015.8 |
| 20260505073412 | 57 | 297 | 2.0 | 6.0 | 0.00 | 0.00 | 0.00 | 51 | 1015.8 |
| 20260505072608 | 57 | 301 | 4.0 | 4.0 | 0.00 | 0.00 | 0.00 | 51 | 1015.9 |
| 20260505072207 | 57 | 292 | 3.0 | 4.0 | 0.00 | 0.00 | 0.00 | 51 | 1016.0 |
| 20260505071806 | 57 | 297 | 2.0 | 3.0 | 0.00 | 0.00 | 0.00 | 51 | 1016.0 |
| 20260505071405 | 57 | 274 | 1.0 | 3.0 | 0.00 | 0.00 | 0.00 | 51 | 1015.9 |
| 20260505071003 | 57 | 330 | 0.0 | 3.0 | 0.00 | 0.00 | 0.00 | 51 | 1015.9 |
| 20260505070601 | 57 | 322 | 1.0 | 3.0 | 0.00 | 0.00 | 0.00 | 51 | 1016.0 |
| 20260505070200 | 57 | 288 | 2.0 | 3.0 | 0.00 | 0.00 | 0.00 | 51 | 1016.0 |
| 20260505065759 | 57 | 270 | 3.0 | 3.0 | 0.00 | 0.00 | 0.00 | 51 | 1016.1 |
| 20260505065358 | 57 | 301 | 1.0 | 3.0 | 0.00 | 0.00 | 0.00 | 51 | 1015.9 |
| 20260505064956 | 57 | 319 | 1.0 | 3.0 | 0.00 | 0.00 | 0.00 | 51 | 1015.9 |
| 20260505064555 | 57 | 292 | 2.0 | 3.0 | 0.00 | 0.00 | 0.00 | 51 | 1015.9 |
| 20260505064154 | 57 | 307 | 3.0 | 4.0 | 0.00 | 0.00 | 0.00 | 51 | 1016.0 |
| 20260505063753 | 57 | 299 | 1.0 | 5.0 | 0.00 | 0.00 | 0.00 | 50 | 1016.0 |
| 20260505063353 | 57 | 297 | 2.0 | 3.0 | 0.00 | 0.00 | 0.00 | 50 | 1016.0 |
| 20260505062549 | 57 | 352 | 1.0 | 2.0 | 0.00 | 0.00 | 0.00 | 50 | 1015.9 |
| 20260505062147 | 58 | 328 | 0.0 | 2.0 | 0.00 | 0.00 | 0.00 | 50 | 1016.0 |
| 20260505061751 | 58 | 305 | 0.0 | 2.0 | 0.00 | 0.00 | 0.00 | 50 | 1015.9 |
| 20260505060537 | 58 | 283 | 1.0 | 2.0 | 0.00 | 0.00 | 0.00 | 50 | 1015.9 |
| 20260505055735 | 58 | 288 | 2.0 | 3.0 | 0.00 | 0.00 | 0.00 | 50 | 1015.9 |
| 20260505055332 | 58 | 292 | 2.0 | 2.0 | 0.00 | 0.00 | 0.00 | 50 | 1015.9 |
| 20260505054132 | 58 | 265 | 1.0 | 1.0 | 0.00 | 0.00 | 0.00 | 49 | 1016.0 |
| 20260505053731 | 58 | 270 | 1.0 | 2.0 | 0.00 | 0.00 | 0.00 | 49 | 1016.0 |
| 20260505053326 | 58 | 279 | 2.0 | 3.0 | 0.00 | 0.00 | 0.00 | 49 | 1016.1 |
| 20260505052925 | 58 | 267 | 1.0 | 2.0 | 0.00 | 0.00 | 0.00 | 49 | 1015.9 |
| 20260505052524 | 58 | 310 | 1.0 | 2.0 | 0.00 | 0.00 | 0.00 | 49 | 1016.1 |
| 20260505052122 | 58 | 270 | 0.0 | 0.0 | 0.00 | 0.00 | 0.00 | 49 | 1016.0 |
| 20260505051721 | 58 | 303 | 0.0 | 1.0 | 0.00 | 0.00 | 0.00 | 49 | 1016.0 |
| 20260505050517 | 58 | 267 | 1.0 | 2.0 | 0.00 | 0.00 | 0.00 | 48 | 1016.1 |
| 20260505041709 | 59 | 175 | 2.0 | 4.0 | 0.00 | 0.00 | 0.00 | 46 | 1016.1 |
| 20260505040459 | 59 | 119 | 0.0 | 5.0 | 0.00 | 0.00 | 0.00 | 46 | 1016.1 |
| 20260505040058 | 59 | 221 | 3.0 | 6.0 | 0.00 | 0.00 | 0.00 | 46 | 1016.0 |
| 20260505035655 | 59 | 164 | 2.0 | 3.0 | 0.00 | 0.00 | 0.00 | 46 | 1016.0 |
| 20260505034853 | 59 | 115 | 2.0 | 5.0 | 0.00 | 0.00 | 0.00 | 45 | 1016.0 |
| 20260505034452 | 60 | 180 | 2.0 | 5.0 | 0.00 | 0.00 | 0.00 | 45 | 1016.0 |
| 20260505033253 | 60 | 112 | 2.0 | 4.0 | 0.00 | 0.00 | 0.00 | 44 | 1015.9 |
| 20260505032848 | 60 | 218 | 3.0 | 4.0 | 0.00 | 0.00 | 0.00 | 44 | 1015.9 |
| 20260505031241 | 61 | 140 | 1.0 | 2.0 | 0.00 | 0.00 | 0.00 | 42 | 1015.7 |
| 20260505030840 | 62 | 148 | 1.0 | 3.0 | 0.00 | 0.00 | 0.00 | 42 | 1015.6 |
| 20260505030438 | 62 | 135 | 1.0 | 4.0 | 0.00 | 0.00 | 0.00 | 42 | 1015.5 |
| 20260505030051 | 62 | 177 | 2.0 | 5.0 | 0.00 | 0.00 | 0.00 | 42 | 1015.5 |
| 20260505025637 | 62 | 213 | 3.0 | 4.0 | 0.00 | 0.00 | 0.00 | 41 | 1015.4 |
| 20260505025235 | 62 | 191 | 2.0 | 5.0 | 0.00 | 0.00 | 0.00 | 41 | 1015.3 |
| 20260505024834 | 63 | 182 | 3.0 | 3.0 | 0.00 | 0.00 | 0.00 | 41 | 1015.3 |
| 20260505024432 | 63 | 225 | 2.0 | 3.0 | 0.00 | 0.00 | 0.00 | 40 | 1015.3 |